Hourly Data Report for October 05, 2014

All times are specified in Local Standard Time (LST). Add 1 hour to adjust for Daylight Saving Time where and when it is observed.

PENTICTON A
BRITISH COLUMBIA

49°27'45.000" N
119°36'08.000" W
344.40 m
1126146
71889
YYF

Download Data

Hourly Data (October 2014)
Hourly Data Report for October 5, 2014
Temp Definition
°C
Dew Point Temp Definition
°C
Rel Hum Definition
%
Wind Dir Definition
10's deg

Wind Spd Definition
km/h
Visibility Definition
km
Stn Press Definition
kPa
Hmdx Definition


Wind Chill Definition


Weather Definition


TIME
00:00 Legend Double Dagger 8.0 5.8 86 1 12 24.1 98.00     LegendNANA
01:00 Legend Double Dagger 7.1 5.4 89 3 5 24.1 98.01     Clear
02:00 Legend Double Dagger 8.1 6.6 90 3 9 24.1 97.99     LegendNANA
03:00 Legend Double Dagger 6.3 5.0 91 2 3 24.1 98.02     LegendNANA
04:00 Legend Double Dagger 7.1 5.9 92 1 9 24.1 98.05     Clear
05:00 Legend Double Dagger 6.0 5.1 94 36 3 24.1 98.06     LegendNANA
06:00 Legend Double Dagger 4.6 3.4 92 36 3 24.1 98.09     LegendNANA
07:00 Legend Double Dagger 8.7 7.6 93 36 10 24.1 98.13     Mostly Cloudy
08:00 Legend Double Dagger 11.7 9.3 85 36 1 24.1 98.05     LegendNANA
09:00 Legend Double Dagger 13.8 10.1 78 33 7 24.1 98.04     LegendNANA
10:00 Legend Double Dagger 15.0 10.3 73 1 13 24.1 98.05     Mainly Clear
11:00 Legend Double Dagger 16.7 10.6 67 35 12 24.1 97.96     LegendNANA
12:00 Legend Double Dagger 17.3 10.0 62 32 8 24.1 97.89     LegendNANA
13:00 Legend Double Dagger 18.8 10.7 59 35 9 24.1 97.81     Mainly Clear
14:00 Legend Double Dagger 18.0 11.2 64 36 17 24.1 97.76     LegendNANA
15:00 Legend Double Dagger 17.8 11.0 64 35 13 24.1 97.70     LegendNANA
16:00 Legend Double Dagger 18.1 10.6 61 35 9 24.1 97.62     Mostly Cloudy
17:00 Legend Double Dagger 16.3 10.7 69 33 11 24.1 97.56     LegendNANA
18:00 Legend Double Dagger 14.2 10.3 77 33 6 24.1 97.55     LegendNANA
19:00 Legend Double Dagger 11.4 9.0 85 3 5 24.1 97.57     Mainly Clear
20:00 Legend Double Dagger 10.4 8.5 88 34 6 24.1 97.57     LegendNANA
21:00 Legend Double Dagger 10.8 8.7 87 36 8 24.1 97.57     LegendNANA
22:00 Legend Double Dagger 9.2 7.3 88 2 4 24.1 97.53     Mainly Clear
23:00 Legend Double Dagger 10.9 9.0 88 15 4 24.1 97.51     LegendNANA

Notes on Data Quality.

Legend

  • E = Estimated
  • M = Missing
  • NA = Not Available
  • ‡ = Partner data that is not subject to review by the National Climate Archives
Date modified: